Location: *
(37.5724°S, 58.0067°E)
Time: 10:53:56
(UTC+00:00)

Cosmos 1656 Rocket - Pass Details

Date: 26 September 2020
Orbit: 794 x 848 km, 71.1° (Epoch: 29 October)

Event Time Altitude Azimuth Distance (km) Brightness Sun altitude
Rises 15:50:47 0° 195° (SSW) 3,351 7.3 -20.7°
Reaches altitude 10° 15:53:23 10° 187° (S) 2,407 6.4 -21.2°
Maximum altitude 15:58:33 40° 118° (ESE) 1,171 4.1 -22.2°
Enters shadow 15:58:42 40° 113° (ESE) 1,173 4.1 -22.2°
